owner,sensor,date,latitude,longitude,sea_surface_height_above_sea_level,qcFlag 
COMPS,ioos:station:USF.COMPS:FHP:1,2013-02-01T00:00:00Z,28.1530,-82.8010,-0.345,1111122 
COMPS,ioos:station:USF.COMPS:FHP:1,2013-02-01T00:06:00Z,28.1530,-82.8010,-0.356,1111122 
COMPS,ioos:station:USF.COMPS:FHP:1,2013-02-01T00:12:00Z,28.1530,-82.8010,-0.375,1111122 
COMPS,ioos:station:USF.COMPS:FHP:1,2013-02-01T00:18:00Z,28.1530,-82.8010,-0.389,1111122 
COMPS,ioos:station:USF.COMPS:FHP:1,2013-02-01T00:24:00Z,28.1530,-82.8010,-0.407,1111122 
COMPS,ioos:station:USF.COMPS:FHP:1,2013-02-01T00:30:00Z,28.1530,-82.8010,-0.421,1111122 
COMPS,ioos:station:USF.COMPS:FHP:1,2013-02-01T00:36:00Z,28.1530,-82.8010,-0.428,1111122 
COMPS,ioos:station:USF.COMPS:FHP:1,2013-02-01T00:42:00Z,28.1530,-82.8010,-0.438,1111122 
COMPS,ioos:station:USF.COMPS:FHP:1,2013-02-01T00:48:00Z,28.1530,-82.8010,-0.449,1111122 
COMPS,ioos:station:USF.COMPS:FHP:1,2013-02-01T00:54:00Z,28.1530,-82.8010,-0.462,1111122 
COMPS,ioos:station:USF.COMPS:FHP:1,2013-02-01T01:06:00Z,28.1530,-82.8010,-0.486,1111122 
COMPS,ioos:station:USF.COMPS:FHP:1,2013-02-01T01:12:00Z,28.1530,-82.8010,-0.497,1111122 
COMPS,ioos:station:USF.COMPS:FHP:1,2013-02-01T01:18:00Z,28.1530,-82.8010,-0.506,1111122 
COMPS,ioos:station:USF.COMPS:FHP:1,2013-02-01T01:24:00Z,28.1530,-82.8010,-0.51,1111122 
COMPS,ioos:station:USF.COMPS:FHP:1,2013-02-01T01:30:00Z,28.1530,-82.8010,-0.52,1111122 
COMPS,ioos:station:USF.COMPS:FHP:1,2013-02-01T01:36:00Z,28.1530,-82.8010,-0.526,1111122 
COMPS,ioos:station:USF.COMPS:FHP:1,2013-02-01T01:42:00Z,28.1530,-82.8010,-0.532,1111122 
COMPS,ioos:station:USF.COMPS:FHP:1,2013-02-01T01:48:00Z,28.1530,-82.8010,-0.535,1111122 
COMPS,ioos:station:USF.COMPS:FHP:1,2013-02-01T02:06:00Z,28.1530,-82.8010,-0.537,1111122 
COMPS,ioos:station:USF.COMPS:FHP:1,2013-02-01T02:18:00Z,28.1530,-82.8010,-0.542,1111122 
COMPS,ioos:station:USF.COMPS:FHP:1,2013-02-01T02:30:00Z,28.1530,-82.8010,-0.542,1111122 
COMPS,ioos:station:USF.COMPS:FHP:1,2013-02-01T02:36:00Z,28.1530,-82.8010,-0.54,1111122 
COMPS,ioos:station:USF.COMPS:FHP:1,2013-02-01T02:42:00Z,28.1530,-82.8010,-0.533,1111122 
COMPS,ioos:station:USF.COMPS:FHP:1,2013-02-01T02:54:00Z,28.1530,-82.8010,-0.523,1111122 
COMPS,ioos:station:USF.COMPS:FHP:1,2013-02-01T03:06:00Z,28.1530,-82.8010,-0.513,1111122 
COMPS,ioos:station:USF.COMPS:FHP:1,2013-02-01T03:12:00Z,28.1530,-82.8010,-0.504,1111122 
COMPS,ioos:station:USF.COMPS:FHP:1,2013-02-01T03:18:00Z,28.1530,-82.8010,-0.488,1111122 
COMPS,ioos:station:USF.COMPS:FHP:1,2013-02-01T03:24:00Z,28.1530,-82.8010,-0.474,1111122 
COMPS,ioos:station:USF.COMPS:FHP:1,2013-02-01T03:30:00Z,28.1530,-82.8010,-0.463,1111122 
COMPS,ioos:station:USF.COMPS:FHP:1,2013-02-01T03:36:00Z,28.1530,-82.8010,-0.445,1111122 
COMPS,ioos:station:USF.COMPS:FHP:1,2013-02-01T03:42:00Z,28.1530,-82.8010,-0.429,1111122 
COMPS,ioos:station:USF.COMPS:FHP:1,2013-02-01T03:48:00Z,28.1530,-82.8010,-0.415,1111122 
COMPS,ioos:station:USF.COMPS:FHP:1,2013-02-01T03:54:00Z,28.1530,-82.8010,-0.401,1111122 
COMPS,ioos:station:USF.COMPS:FHP:1,2013-02-01T04:00:00Z,28.1530,-82.8010,-0.386,1111122 
COMPS,ioos:station:USF.COMPS:FHP:1,2013-02-01T04:06:00Z,28.1530,-82.8010,-0.372,1111122 
COMPS,ioos:station:USF.COMPS:FHP:1,2013-02-01T04:12:00Z,28.1530,-82.8010,-0.357,1111122 
COMPS,ioos:station:USF.COMPS:FHP:1,2013-02-01T04:18:00Z,28.1530,-82.8010,-0.345,1111122 
COMPS,ioos:station:USF.COMPS:FHP:1,2013-02-01T04:24:00Z,28.1530,-82.8010,-0.332,1111122 
COMPS,ioos:station:USF.COMPS:FHP:1,2013-02-01T04:30:00Z,28.1530,-82.8010,-0.316,1111122 
COMPS,ioos:station:USF.COMPS:FHP:1,2013-02-01T04:36:00Z,28.1530,-82.8010,-0.305,1111122 
COMPS,ioos:station:USF.COMPS:FHP:1,2013-02-01T04:42:00Z,28.1530,-82.8010,-0.285,1111122 
COMPS,ioos:station:USF.COMPS:FHP:1,2013-02-01T04:48:00Z,28.1530,-82.8010,-0.27,1111122 
COMPS,ioos:station:USF.COMPS:FHP:1,2013-02-01T04:54:00Z,28.1530,-82.8010,-0.253,1111122 
COMPS,ioos:station:USF.COMPS:FHP:1,2013-02-01T05:00:00Z,28.1530,-82.8010,-0.242,1111122 
COMPS,ioos:station:USF.COMPS:FHP:1,2013-02-01T05:06:00Z,28.1530,-82.8010,-0.227,1111122 
COMPS,ioos:station:USF.COMPS:FHP:1,2013-02-01T05:12:00Z,28.1530,-82.8010,-0.208,1111122 
COMPS,ioos:station:USF.COMPS:FHP:1,2013-02-01T05:18:00Z,28.1530,-82.8010,-0.195,1111122 
COMPS,ioos:station:USF.COMPS:FHP:1,2013-02-01T05:24:00Z,28.1530,-82.8010,-0.171,1111122 
COMPS,ioos:station:USF.COMPS:FHP:1,2013-02-01T05:30:00Z,28.1530,-82.8010,-0.154,1111122 
COMPS,ioos:station:USF.COMPS:FHP:1,2013-02-01T05:36:00Z,28.1530,-82.8010,-0.14,1111122 
COMPS,ioos:station:USF.COMPS:FHP:1,2013-02-01T05:42:00Z,28.1530,-82.8010,-0.127,1111122 
COMPS,ioos:station:USF.COMPS:FHP:1,2013-02-01T05:48:00Z,28.1530,-82.8010,-0.112,1111122 
COMPS,ioos:station:USF.COMPS:FHP:1,2013-02-01T05:54:00Z,28.1530,-82.8010,-0.104,1111122 
COMPS,ioos:station:USF.COMPS:FHP:1,2013-02-01T06:00:00Z,28.1530,-82.8010,-0.096,1111122 
COMPS,ioos:station:USF.COMPS:FHP:1,2013-02-01T06:06:00Z,28.1530,-82.8010,-0.08,1111122 
COMPS,ioos:station:USF.COMPS:FHP:1,2013-02-01T06:12:00Z,28.1530,-82.8010,-0.086,1111122 
COMPS,ioos:station:USF.COMPS:FHP:1,2013-02-01T06:18:00Z,28.1530,-82.8010,-0.068,1111122 
COMPS,ioos:station:USF.COMPS:FHP:1,2013-02-01T06:24:00Z,28.1530,-82.8010,-0.069,1111122 
COMPS,ioos:station:USF.COMPS:FHP:1,2013-02-01T06:30:00Z,28.1530,-82.8010,-0.058,1111122 
COMPS,ioos:station:USF.COMPS:FHP:1,2013-02-01T06:36:00Z,28.1530,-82.8010,-0.059,1111122 
COMPS,ioos:station:USF.COMPS:FHP:1,2013-02-01T06:42:00Z,28.1530,-82.8010,-0.056,1111122 
COMPS,ioos:station:USF.COMPS:FHP:1,2013-02-01T06:48:00Z,28.1530,-82.8010,-0.044,1111122 
COMPS,ioos:station:USF.COMPS:FHP:1,2013-02-01T06:54:00Z,28.1530,-82.8010,-0.042,1111122 
COMPS,ioos:station:USF.COMPS:FHP:1,2013-02-01T07:00:00Z,28.1530,-82.8010,-0.03,1111122 
COMPS,ioos:station:USF.COMPS:FHP:1,2013-02-01T07:06:00Z,28.1530,-82.8010,-0.032,1111122 
COMPS,ioos:station:USF.COMPS:FHP:1,2013-02-01T07:18:00Z,28.1530,-82.8010,-0.024,1111122 
COMPS,ioos:station:USF.COMPS:FHP:1,2013-02-01T07:24:00Z,28.1530,-82.8010,-0.026,1111122 
COMPS,ioos:station:USF.COMPS:FHP:1,2013-02-01T07:30:00Z,28.1530,-82.8010,-0.036,1111122 
COMPS,ioos:station:USF.COMPS:FHP:1,2013-02-01T07:36:00Z,28.1530,-82.8010,-0.025,1111122 
COMPS,ioos:station:USF.COMPS:FHP:1,2013-02-01T07:42:00Z,28.1530,-82.8010,-0.026,1111122 
COMPS,ioos:station:USF.COMPS:FHP:1,2013-02-01T07:48:00Z,28.1530,-82.8010,-0.029,1111122 
COMPS,ioos:station:USF.COMPS:FHP:1,2013-02-01T07:54:00Z,28.1530,-82.8010,-0.022,1111122 
COMPS,ioos:station:USF.COMPS:FHP:1,2013-02-01T08:00:00Z,28.1530,-82.8010,-0.03,1111122 
COMPS,ioos:station:USF.COMPS:FHP:1,2013-02-01T08:06:00Z,28.1530,-82.8010,-0.03,1111122 
COMPS,ioos:station:USF.COMPS:FHP:1,2013-02-01T08:12:00Z,28.1530,-82.8010,-0.027,1111122 
COMPS,ioos:station:USF.COMPS:FHP:1,2013-02-01T08:18:00Z,28.1530,-82.8010,-0.023,1111122 
COMPS,ioos:station:USF.COMPS:FHP:1,2013-02-01T08:24:00Z,28.1530,-82.8010,-0.022,1111122 
COMPS,ioos:station:USF.COMPS:FHP:1,2013-02-01T08:30:00Z,28.1530,-82.8010,-0.018,1111122 
COMPS,ioos:station:USF.COMPS:FHP:1,2013-02-01T08:36:00Z,28.1530,-82.8010,-0.007,1111122 
COMPS,ioos:station:USF.COMPS:FHP:1,2013-02-01T08:42:00Z,28.1530,-82.8010,-0.025,1111122 
COMPS,ioos:station:USF.COMPS:FHP:1,2013-02-01T08:48:00Z,28.1530,-82.8010,-0.024,1111122 
COMPS,ioos:station:USF.COMPS:FHP:1,2013-02-01T08:54:00Z,28.1530,-82.8010,-0.027,1111122 
COMPS,ioos:station:USF.COMPS:FHP:1,2013-02-01T09:00:00Z,28.1530,-82.8010,-0.032,1111122 
COMPS,ioos:station:USF.COMPS:FHP:1,2013-02-01T09:06:00Z,28.1530,-82.8010,-0.027,1111122 
COMPS,ioos:station:USF.COMPS:FHP:1,2013-02-01T09:12:00Z,28.1530,-82.8010,-0.032,1111122 
COMPS,ioos:station:USF.COMPS:FHP:1,2013-02-01T09:18:00Z,28.1530,-82.8010,-0.037,1111122 
COMPS,ioos:station:USF.COMPS:FHP:1,2013-02-01T09:24:00Z,28.1530,-82.8010,-0.035,1111122 
COMPS,ioos:station:USF.COMPS:FHP:1,2013-02-01T09:30:00Z,28.1530,-82.8010,-0.053,1111122 
COMPS,ioos:station:USF.COMPS:FHP:1,2013-02-01T09:36:00Z,28.1530,-82.8010,-0.049,1111122 
COMPS,ioos:station:USF.COMPS:FHP:1,2013-02-01T09:42:00Z,28.1530,-82.8010,-0.067,1111122 
COMPS,ioos:station:USF.COMPS:FHP:1,2013-02-01T09:48:00Z,28.1530,-82.8010,-0.072,1111122 
COMPS,ioos:station:USF.COMPS:FHP:1,2013-02-01T09:54:00Z,28.1530,-82.8010,-0.078,1111122 
COMPS,ioos:station:USF.COMPS:FHP:1,2013-02-01T10:00:00Z,28.1530,-82.8010,-0.098,1111122 
COMPS,ioos:station:USF.COMPS:FHP:1,2013-02-01T10:06:00Z,28.1530,-82.8010,-0.117,1111122 
COMPS,ioos:station:USF.COMPS:FHP:1,2013-02-01T10:12:00Z,28.1530,-82.8010,-0.128,1111122 
COMPS,ioos:station:USF.COMPS:FHP:1,2013-02-01T10:18:00Z,28.1530,-82.8010,-0.149,1111122 
COMPS,ioos:station:USF.COMPS:FHP:1,2013-02-01T10:24:00Z,28.1530,-82.8010,-0.156,1111122 
COMPS,ioos:station:USF.COMPS:FHP:1,2013-02-01T10:30:00Z,28.1530,-82.8010,-0.176,1111122 
COMPS,ioos:station:USF.COMPS:FHP:1,2013-02-01T10:36:00Z,28.1530,-82.8010,-0.189,1111122 
COMPS,ioos:station:USF.COMPS:FHP:1,2013-02-01T10:42:00Z,28.1530,-82.8010,-0.203,1111122 
COMPS,ioos:station:USF.COMPS:FHP:1,2013-02-01T10:48:00Z,28.1530,-82.8010,-0.211,1111122 
COMPS,ioos:station:USF.COMPS:FHP:1,2013-02-01T10:54:00Z,28.1530,-82.8010,-0.223,1111122 
COMPS,ioos:station:USF.COMPS:FHP:1,2013-02-01T11:00:00Z,28.1530,-82.8010,-0.241,1111122 
COMPS,ioos:station:USF.COMPS:FHP:1,2013-02-01T11:06:00Z,28.1530,-82.8010,-0.253,1111122 
COMPS,ioos:station:USF.COMPS:FHP:1,2013-02-01T11:12:00Z,28.1530,-82.8010,-0.258,1111122 
COMPS,ioos:station:USF.COMPS:FHP:1,2013-02-01T11:18:00Z,28.1530,-82.8010,-0.278,1111122 
COMPS,ioos:station:USF.COMPS:FHP:1,2013-02-01T11:24:00Z,28.1530,-82.8010,-0.296,1111122 
COMPS,ioos:station:USF.COMPS:FHP:1,2013-02-01T11:30:00Z,28.1530,-82.8010,-0.307,1111122 
COMPS,ioos:station:USF.COMPS:FHP:1,2013-02-01T11:36:00Z,28.1530,-82.8010,-0.323,1111122 
COMPS,ioos:station:USF.COMPS:FHP:1,2013-02-01T11:42:00Z,28.1530,-82.8010,-0.336,1111122 
COMPS,ioos:station:USF.COMPS:FHP:1,2013-02-01T11:48:00Z,28.1530,-82.8010,-0.352,1111122 
COMPS,ioos:station:USF.COMPS:FHP:1,2013-02-01T11:54:00Z,28.1530,-82.8010,-0.36,1111122 
COMPS,ioos:station:USF.COMPS:FHP:1,2013-02-01T12:00:00Z,28.1530,-82.8010,-0.37,1111122 
COMPS,ioos:station:USF.COMPS:FHP:1,2013-02-01T12:06:00Z,28.1530,-82.8010,-0.385,1111122 
COMPS,ioos:station:USF.COMPS:FHP:1,2013-02-01T12:12:00Z,28.1530,-82.8010,-0.394,1111122 
COMPS,ioos:station:USF.COMPS:FHP:1,2013-02-01T12:18:00Z,28.1530,-82.8010,-0.4,1111122 
COMPS,ioos:station:USF.COMPS:FHP:1,2013-02-01T12:24:00Z,28.1530,-82.8010,-0.417,1111122 
COMPS,ioos:station:USF.COMPS:FHP:1,2013-02-01T12:30:00Z,28.1530,-82.8010,-0.429,1111122 
COMPS,ioos:station:USF.COMPS:FHP:1,2013-02-01T12:36:00Z,28.1530,-82.8010,-0.441,1111122 
COMPS,ioos:station:USF.COMPS:FHP:1,2013-02-01T12:42:00Z,28.1530,-82.8010,-0.451,1111122 
COMPS,ioos:station:USF.COMPS:FHP:1,2013-02-01T12:48:00Z,28.1530,-82.8010,-0.458,1111122 
COMPS,ioos:station:USF.COMPS:FHP:1,2013-02-01T12:54:00Z,28.1530,-82.8010,-0.461,1111122 
COMPS,ioos:station:USF.COMPS:FHP:1,2013-02-01T13:00:00Z,28.1530,-82.8010,-0.468,1111122 
COMPS,ioos:station:USF.COMPS:FHP:1,2013-02-01T13:06:00Z,28.1530,-82.8010,-0.475,1111122 
COMPS,ioos:station:USF.COMPS:FHP:1,2013-02-01T13:12:00Z,28.1530,-82.8010,-0.483,1111122 
COMPS,ioos:station:USF.COMPS:FHP:1,2013-02-01T13:18:00Z,28.1530,-82.8010,-0.492,1111122 
COMPS,ioos:station:USF.COMPS:FHP:1,2013-02-01T13:24:00Z,28.1530,-82.8010,-0.503,1111122 
COMPS,ioos:station:USF.COMPS:FHP:1,2013-02-01T13:30:00Z,28.1530,-82.8010,-0.512,1111122 
COMPS,ioos:station:USF.COMPS:FHP:1,2013-02-01T13:36:00Z,28.1530,-82.8010,-0.517,1111122 
COMPS,ioos:station:USF.COMPS:FHP:1,2013-02-01T13:42:00Z,28.1530,-82.8010,-0.523,1111122 
COMPS,ioos:station:USF.COMPS:FHP:1,2013-02-01T13:48:00Z,28.1530,-82.8010,-0.528,1111122 
COMPS,ioos:station:USF.COMPS:FHP:1,2013-02-01T13:54:00Z,28.1530,-82.8010,-0.53,1111122 
COMPS,ioos:station:USF.COMPS:FHP:1,2013-02-01T14:00:00Z,28.1530,-82.8010,-0.537,1111122 
COMPS,ioos:station:USF.COMPS:FHP:1,2013-02-01T14:06:00Z,28.1530,-82.8010,-0.541,1111122 
COMPS,ioos:station:USF.COMPS:FHP:1,2013-02-01T14:12:00Z,28.1530,-82.8010,-0.544,1111122 
COMPS,ioos:station:USF.COMPS:FHP:1,2013-02-01T14:18:00Z,28.1530,-82.8010,-0.544,1111122 
COMPS,ioos:station:USF.COMPS:FHP:1,2013-02-01T14:24:00Z,28.1530,-82.8010,-0.547,1111122 
COMPS,ioos:station:USF.COMPS:FHP:1,2013-02-01T14:30:00Z,28.1530,-82.8010,-0.547,1111122 
COMPS,ioos:station:USF.COMPS:FHP:1,2013-02-01T14:36:00Z,28.1530,-82.8010,-0.547,1111122 
COMPS,ioos:station:USF.COMPS:FHP:1,2013-02-01T14:42:00Z,28.1530,-82.8010,-0.544,1111122 
COMPS,ioos:station:USF.COMPS:FHP:1,2013-02-01T14:48:00Z,28.1530,-82.8010,-0.544,1111122 
COMPS,ioos:station:USF.COMPS:FHP:1,2013-02-01T14:54:00Z,28.1530,-82.8010,-0.538,1111122 
COMPS,ioos:station:USF.COMPS:FHP:1,2013-02-01T15:00:00Z,28.1530,-82.8010,-0.537,1111122 
COMPS,ioos:station:USF.COMPS:FHP:1,2013-02-01T15:06:00Z,28.1530,-82.8010,-0.536,1111122 
COMPS,ioos:station:USF.COMPS:FHP:1,2013-02-01T15:12:00Z,28.1530,-82.8010,-0.533,1111122 
COMPS,ioos:station:USF.COMPS:FHP:1,2013-02-01T15:18:00Z,28.1530,-82.8010,-0.533,1111122 
COMPS,ioos:station:USF.COMPS:FHP:1,2013-02-01T15:24:00Z,28.1530,-82.8010,-0.523,1111122 
COMPS,ioos:station:USF.COMPS:FHP:1,2013-02-01T15:30:00Z,28.1530,-82.8010,-0.517,1111122 
COMPS,ioos:station:USF.COMPS:FHP:1,2013-02-01T15:36:00Z,28.1530,-82.8010,-0.514,1111122 
COMPS,ioos:station:USF.COMPS:FHP:1,2013-02-01T15:42:00Z,28.1530,-82.8010,-0.5,1111122 
COMPS,ioos:station:USF.COMPS:FHP:1,2013-02-01T15:48:00Z,28.1530,-82.8010,-0.49,1111122 
COMPS,ioos:station:USF.COMPS:FHP:1,2013-02-01T15:54:00Z,28.1530,-82.8010,-0.477,1111122 
COMPS,ioos:station:USF.COMPS:FHP:1,2013-02-01T16:00:00Z,28.1530,-82.8010,-0.463,1111122 
COMPS,ioos:station:USF.COMPS:FHP:1,2013-02-01T16:06:00Z,28.1530,-82.8010,-0.454,1111122 
COMPS,ioos:station:USF.COMPS:FHP:1,2013-02-01T16:12:00Z,28.1530,-82.8010,-0.444,1111122 
COMPS,ioos:station:USF.COMPS:FHP:1,2013-02-01T16:18:00Z,28.1530,-82.8010,-0.425,1111122 
COMPS,ioos:station:USF.COMPS:FHP:1,2013-02-01T16:24:00Z,28.1530,-82.8010,-0.403,1111122 
COMPS,ioos:station:USF.COMPS:FHP:1,2013-02-01T16:30:00Z,28.1530,-82.8010,-0.386,1111122 
COMPS,ioos:station:USF.COMPS:FHP:1,2013-02-01T16:36:00Z,28.1530,-82.8010,-0.366,1111122 
COMPS,ioos:station:USF.COMPS:FHP:1,2013-02-01T16:42:00Z,28.1530,-82.8010,-0.348,1111122 
COMPS,ioos:station:USF.COMPS:FHP:1,2013-02-01T16:48:00Z,28.1530,-82.8010,-0.332,1111122 
COMPS,ioos:station:USF.COMPS:FHP:1,2013-02-01T16:54:00Z,28.1530,-82.8010,-0.317,1111122 
COMPS,ioos:station:USF.COMPS:FHP:1,2013-02-01T17:00:00Z,28.1530,-82.8010,-0.297,1111122 
COMPS,ioos:station:USF.COMPS:FHP:1,2013-02-01T17:06:00Z,28.1530,-82.8010,-0.286,1111122 
COMPS,ioos:station:USF.COMPS:FHP:1,2013-02-01T17:12:00Z,28.1530,-82.8010,-0.265,1111122 
COMPS,ioos:station:USF.COMPS:FHP:1,2013-02-01T17:18:00Z,28.1530,-82.8010,-0.251,1111122 
COMPS,ioos:station:USF.COMPS:FHP:1,2013-02-01T17:24:00Z,28.1530,-82.8010,-0.239,1111122 
COMPS,ioos:station:USF.COMPS:FHP:1,2013-02-01T17:30:00Z,28.1530,-82.8010,-0.223,1111122 
COMPS,ioos:station:USF.COMPS:FHP:1,2013-02-01T17:36:00Z,28.1530,-82.8010,-0.201,1111122 
COMPS,ioos:station:USF.COMPS:FHP:1,2013-02-01T17:42:00Z,28.1530,-82.8010,-0.179,1111122 
COMPS,ioos:station:USF.COMPS:FHP:1,2013-02-01T17:48:00Z,28.1530,-82.8010,-0.165,1111122 
COMPS,ioos:station:USF.COMPS:FHP:1,2013-02-01T17:54:00Z,28.1530,-82.8010,-0.149,1111122 
COMPS,ioos:station:USF.COMPS:FHP:1,2013-02-01T18:00:00Z,28.1530,-82.8010,-0.125,1111122 
COMPS,ioos:station:USF.COMPS:FHP:1,2013-02-01T18:06:00Z,28.1530,-82.8010,-0.118,1111122 
COMPS,ioos:station:USF.COMPS:FHP:1,2013-02-01T18:12:00Z,28.1530,-82.8010,-0.092,1111122 
COMPS,ioos:station:USF.COMPS:FHP:1,2013-02-01T18:18:00Z,28.1530,-82.8010,-0.078,1111122 
COMPS,ioos:station:USF.COMPS:FHP:1,2013-02-01T18:24:00Z,28.1530,-82.8010,-0.068,1111122 
COMPS,ioos:station:USF.COMPS:FHP:1,2013-02-01T18:30:00Z,28.1530,-82.8010,-0.042,1111122 
COMPS,ioos:station:USF.COMPS:FHP:1,2013-02-01T18:36:00Z,28.1530,-82.8010,-0.03,1111122 
COMPS,ioos:station:USF.COMPS:FHP:1,2013-02-01T18:42:00Z,28.1530,-82.8010,-0.025,1111122 
COMPS,ioos:station:USF.COMPS:FHP:1,2013-02-01T18:48:00Z,28.1530,-82.8010,0.001,1111122 
COMPS,ioos:station:USF.COMPS:FHP:1,2013-02-01T18:54:00Z,28.1530,-82.8010,-0.003,1111122 
COMPS,ioos:station:USF.COMPS:FHP:1,2013-02-01T19:00:00Z,28.1530,-82.8010,0.01,1111122 
COMPS,ioos:station:USF.COMPS:FHP:1,2013-02-01T19:06:00Z,28.1530,-82.8010,0.008,1111122 
COMPS,ioos:station:USF.COMPS:FHP:1,2013-02-01T19:12:00Z,28.1530,-82.8010,0.003,1111122 
COMPS,ioos:station:USF.COMPS:FHP:1,2013-02-01T19:18:00Z,28.1530,-82.8010,0.02,1111122 
COMPS,ioos:station:USF.COMPS:FHP:1,2013-02-01T19:24:00Z,28.1530,-82.8010,0.023,1111122 
COMPS,ioos:station:USF.COMPS:FHP:1,2013-02-01T19:30:00Z,28.1530,-82.8010,0.032,1111122 
COMPS,ioos:station:USF.COMPS:FHP:1,2013-02-01T19:36:00Z,28.1530,-82.8010,0.035,1111122 
COMPS,ioos:station:USF.COMPS:FHP:1,2013-02-01T19:42:00Z,28.1530,-82.8010,0.045,1111122 
COMPS,ioos:station:USF.COMPS:FHP:1,2013-02-01T19:48:00Z,28.1530,-82.8010,0.043,1111122 
COMPS,ioos:station:USF.COMPS:FHP:1,2013-02-01T19:54:00Z,28.1530,-82.8010,0.05,1111122 
COMPS,ioos:station:USF.COMPS:FHP:1,2013-02-01T20:00:00Z,28.1530,-82.8010,0.061,1111122 
COMPS,ioos:station:USF.COMPS:FHP:1,2013-02-01T20:06:00Z,28.1530,-82.8010,0.066,1111122 
COMPS,ioos:station:USF.COMPS:FHP:1,2013-02-01T20:12:00Z,28.1530,-82.8010,0.089,1111122 
COMPS,ioos:station:USF.COMPS:FHP:1,2013-02-01T20:18:00Z,28.1530,-82.8010,0.09,1111122 
COMPS,ioos:station:USF.COMPS:FHP:1,2013-02-01T20:24:00Z,28.1530,-82.8010,0.094,1111122 
COMPS,ioos:station:USF.COMPS:FHP:1,2013-02-01T20:30:00Z,28.1530,-82.8010,0.081,1111122 
COMPS,ioos:station:USF.COMPS:FHP:1,2013-02-01T20:36:00Z,28.1530,-82.8010,0.077,1111122 
COMPS,ioos:station:USF.COMPS:FHP:1,2013-02-01T20:42:00Z,28.1530,-82.8010,0.076,1111122 
COMPS,ioos:station:USF.COMPS:FHP:1,2013-02-01T20:48:00Z,28.1530,-82.8010,0.076,1111122 
COMPS,ioos:station:USF.COMPS:FHP:1,2013-02-01T20:54:00Z,28.1530,-82.8010,0.074,1111122 
COMPS,ioos:station:USF.COMPS:FHP:1,2013-02-01T21:00:00Z,28.1530,-82.8010,0.08,1111122 
COMPS,ioos:station:USF.COMPS:FHP:1,2013-02-01T21:06:00Z,28.1530,-82.8010,0.076,1111122 
COMPS,ioos:station:USF.COMPS:FHP:1,2013-02-01T21:12:00Z,28.1530,-82.8010,0.065,1111122 
COMPS,ioos:station:USF.COMPS:FHP:1,2013-02-01T21:18:00Z,28.1530,-82.8010,0.063,1111122 
COMPS,ioos:station:USF.COMPS:FHP:1,2013-02-01T21:24:00Z,28.1530,-82.8010,0.047,1111122 
COMPS,ioos:station:USF.COMPS:FHP:1,2013-02-01T21:30:00Z,28.1530,-82.8010,0.045,1111122 
COMPS,ioos:station:USF.COMPS:FHP:1,2013-02-01T21:36:00Z,28.1530,-82.8010,0.034,1111122 
COMPS,ioos:station:USF.COMPS:FHP:1,2013-02-01T21:42:00Z,28.1530,-82.8010,0.035,1111122 
COMPS,ioos:station:USF.COMPS:FHP:1,2013-02-01T21:48:00Z,28.1530,-82.8010,0.02,1111122 
COMPS,ioos:station:USF.COMPS:FHP:1,2013-02-01T21:54:00Z,28.1530,-82.8010,0.014,1111122 
COMPS,ioos:station:USF.COMPS:FHP:1,2013-02-01T22:00:00Z,28.1530,-82.8010,-0.003,1111122 
COMPS,ioos:station:USF.COMPS:FHP:1,2013-02-01T22:06:00Z,28.1530,-82.8010,-0.02,1111122 
COMPS,ioos:station:USF.COMPS:FHP:1,2013-02-01T22:12:00Z,28.1530,-82.8010,-0.029,1111122 
COMPS,ioos:station:USF.COMPS:FHP:1,2013-02-01T22:18:00Z,28.1530,-82.8010,-0.043,1111122 
COMPS,ioos:station:USF.COMPS:FHP:1,2013-02-01T22:24:00Z,28.1530,-82.8010,-0.057,1111122 
COMPS,ioos:station:USF.COMPS:FHP:1,2013-02-01T22:30:00Z,28.1530,-82.8010,-0.058,1111122 
COMPS,ioos:station:USF.COMPS:FHP:1,2013-02-01T22:36:00Z,28.1530,-82.8010,-0.079,1111122 
COMPS,ioos:station:USF.COMPS:FHP:1,2013-02-01T22:42:00Z,28.1530,-82.8010,-0.086,1111122 
COMPS,ioos:station:USF.COMPS:FHP:1,2013-02-01T22:48:00Z,28.1530,-82.8010,-0.1,1111122 
COMPS,ioos:station:USF.COMPS:FHP:1,2013-02-01T22:54:00Z,28.1530,-82.8010,-0.118,1111122 
COMPS,ioos:station:USF.COMPS:FHP:1,2013-02-01T23:00:00Z,28.1530,-82.8010,-0.123,1111122 
COMPS,ioos:station:USF.COMPS:FHP:1,2013-02-01T23:06:00Z,28.1530,-82.8010,-0.141,1111122 
COMPS,ioos:station:USF.COMPS:FHP:1,2013-02-01T23:12:00Z,28.1530,-82.8010,-0.158,1111122 
COMPS,ioos:station:USF.COMPS:FHP:1,2013-02-01T23:18:00Z,28.1530,-82.8010,-0.166,1111122 
COMPS,ioos:station:USF.COMPS:FHP:1,2013-02-01T23:30:00Z,28.1530,-82.8010,-0.181,1111122 
COMPS,ioos:station:USF.COMPS:FHP:1,2013-02-01T23:36:00Z,28.1530,-82.8010,-0.199,1111122 
COMPS,ioos:station:USF.COMPS:FHP:1,2013-02-01T23:42:00Z,28.1530,-82.8010,-0.211,1111122 
COMPS,ioos:station:USF.COMPS:FHP:1,2013-02-01T23:48:00Z,28.1530,-82.8010,-0.228,1111122 
COMPS,ioos:station:USF.COMPS:FHP:1,2013-02-01T23:54:00Z,28.1530,-82.8010,-0.247,1111122 
COMPS,ioos:station:USF.COMPS:FHP:1,2013-02-02T00:00:00Z,28.1530,-82.8010,-0.25,1111122 
COMPS,ioos:station:USF.COMPS:FHP:1,2013-02-02T00:06:00Z,28.1530,-82.8010,-0.264,1111122 
COMPS,ioos:station:USF.COMPS:FHP:1,2013-02-02T00:18:00Z,28.1530,-82.8010,-0.288,1111122 
COMPS,ioos:station:USF.COMPS:FHP:1,2013-02-02T00:24:00Z,28.1530,-82.8010,-0.301,1111122 
COMPS,ioos:station:USF.COMPS:FHP:1,2013-02-02T00:30:00Z,28.1530,-82.8010,-0.313,1111122 
COMPS,ioos:station:USF.COMPS:FHP:1,2013-02-02T00:36:00Z,28.1530,-82.8010,-0.324,1111122 
COMPS,ioos:station:USF.COMPS:FHP:1,2013-02-02T00:42:00Z,28.1530,-82.8010,-0.341,1111122 
COMPS,ioos:station:USF.COMPS:FHP:1,2013-02-02T00:48:00Z,28.1530,-82.8010,-0.351,1111122 
COMPS,ioos:station:USF.COMPS:FHP:1,2013-02-02T00:54:00Z,28.1530,-82.8010,-0.368,1111122 
COMPS,ioos:station:USF.COMPS:FHP:1,2013-02-02T01:00:00Z,28.1530,-82.8010,-0.382,1111122 
COMPS,ioos:station:USF.COMPS:FHP:1,2013-02-02T01:06:00Z,28.1530,-82.8010,-0.392,1111122 
COMPS,ioos:station:USF.COMPS:FHP:1,2013-02-02T01:12:00Z,28.1530,-82.8010,-0.404,1111122 
COMPS,ioos:station:USF.COMPS:FHP:1,2013-02-02T01:18:00Z,28.1530,-82.8010,-0.412,1111122 
COMPS,ioos:station:USF.COMPS:FHP:1,2013-02-02T01:24:00Z,28.1530,-82.8010,-0.426,1111122 
COMPS,ioos:station:USF.COMPS:FHP:1,2013-02-02T01:30:00Z,28.1530,-82.8010,-0.437,1111122 
COMPS,ioos:station:USF.COMPS:FHP:1,2013-02-02T01:36:00Z,28.1530,-82.8010,-0.443,1111122 
COMPS,ioos:station:USF.COMPS:FHP:1,2013-02-02T01:42:00Z,28.1530,-82.8010,-0.45,1111122 
COMPS,ioos:station:USF.COMPS:FHP:1,2013-02-02T01:48:00Z,28.1530,-82.8010,-0.46,1111122 
COMPS,ioos:station:USF.COMPS:FHP:1,2013-02-02T01:54:00Z,28.1530,-82.8010,-0.47,1111122 
COMPS,ioos:station:USF.COMPS:FHP:1,2013-02-02T02:00:00Z,28.1530,-82.8010,-0.479,1111122 
COMPS,ioos:station:USF.COMPS:FHP:1,2013-02-02T02:06:00Z,28.1530,-82.8010,-0.487,1111122 
COMPS,ioos:station:USF.COMPS:FHP:1,2013-02-02T02:12:00Z,28.1530,-82.8010,-0.497,1111122 
COMPS,ioos:station:USF.COMPS:FHP:1,2013-02-02T02:18:00Z,28.1530,-82.8010,-0.5,1111122 
COMPS,ioos:station:USF.COMPS:FHP:1,2013-02-02T02:24:00Z,28.1530,-82.8010,-0.501,1111122 
COMPS,ioos:station:USF.COMPS:FHP:1,2013-02-02T02:30:00Z,28.1530,-82.8010,-0.507,1111122 
COMPS,ioos:station:USF.COMPS:FHP:1,2013-02-02T02:36:00Z,28.1530,-82.8010,-0.507,1111122 
COMPS,ioos:station:USF.COMPS:FHP:1,2013-02-02T02:42:00Z,28.1530,-82.8010,-0.507,1111122 
COMPS,ioos:station:USF.COMPS:FHP:1,2013-02-02T02:48:00Z,28.1530,-82.8010,-0.51,1111122 
COMPS,ioos:station:USF.COMPS:FHP:1,2013-02-02T02:54:00Z,28.1530,-82.8010,-0.51,1111122 
COMPS,ioos:station:USF.COMPS:FHP:1,2013-02-02T03:00:00Z,28.1530,-82.8010,-0.503,1111122 
COMPS,ioos:station:USF.COMPS:FHP:1,2013-02-02T03:06:00Z,28.1530,-82.8010,-0.5,1111122 
COMPS,ioos:station:USF.COMPS:FHP:1,2013-02-02T03:12:00Z,28.1530,-82.8010,-0.493,1111122 
COMPS,ioos:station:USF.COMPS:FHP:1,2013-02-02T03:18:00Z,28.1530,-82.8010,-0.486,1111122 
COMPS,ioos:station:USF.COMPS:FHP:1,2013-02-02T03:24:00Z,28.1530,-82.8010,-0.476,1111122 
COMPS,ioos:station:USF.COMPS:FHP:1,2013-02-02T03:30:00Z,28.1530,-82.8010,-0.47,1111122 
COMPS,ioos:station:USF.COMPS:FHP:1,2013-02-02T03:36:00Z,28.1530,-82.8010,-0.463,1111122 
COMPS,ioos:station:USF.COMPS:FHP:1,2013-02-02T03:42:00Z,28.1530,-82.8010,-0.456,1111122 
COMPS,ioos:station:USF.COMPS:FHP:1,2013-02-02T03:48:00Z,28.1530,-82.8010,-0.448,1111122 